Regional Weather Roundup
Issued by NWS

Home | Current Version | Previous Version | Graphics & Text | Print | Product List | Glossary On
Versions: 1 2 3 4 5 6 7 8 9 10 11 12 13 14 15 16 17 18 19 20 21 22 23 24 25 26 27
000
ASUS45 KBOU 250607
RWRCO

WEATHER ROUNDUP FOR COLORADO
NATIONAL WEATHER SERVICE DENVER/BOULDER CO
1200 AM MDT THU MAY 25 2017

NOTE: "FAIR" INDICATES FEW OR NO CLOUDS BELOW 12000 FEET WITH NO
SIGNIFICANT WEATHER AND/OR OBSTRUCTIONS TO VISIBILITY.

COZ001>005-013-030-031-250700-
...NORTHWEST COLORADO...

CITY           SKY/WX    TMP DP  RH WIND       PRES   REMARKS
CRAIG            N/A     59  36  42 NW6       29.64F
HAYDEN         MOCLDY    57  34  41 N5        29.67F
MEEKER         FAIR      59  35  40 CALM      29.66F
RABBIT EARS PA MOCLDY    46  28  49 SW9G24    29.92F
STEAMBOAT SPGS MOCLDY    57  34  41 E3        29.69F
WALDEN           N/A     50  32  50 S6        29.79S
$$

COZ006>008-011-250700-
...WEST CENTRAL VALLEYS...

CITY           SKY/WX    TMP DP  RH WIND       PRES   REMARKS
GRAND JUNCTION FAIR      70  32  24 E6        29.59F
MONTROSE       FAIR      64  26  23 S8        29.70F
EAGLE          FAIR      60  37  42 SE8       29.74F
RIFLE          FAIR      69  32  25 CALM      29.64S
DELTA          FAIR      67  34  28 SE3       29.65R
NUCLA          FAIR      70  19  14 SW9G16    29.75S
$$

COZ017>023-064>068-250700-
...SOUTHWEST COLORADO...

CITY           SKY/WX    TMP DP  RH WIND       PRES   REMARKS
DURANGO        FAIR      50  28  42 N7        29.82S
CORTEZ         FAIR      55  36  48 NE8       29.77S
PAGOSA SPRINGS FAIR      49  24  37 CALM      29.89F
TELLURIDE      MOCLDY    54  23  29 SE7       29.99S
WOLF CREEK PAS FAIR      43  19  39 SW14G25   30.19F
$$

COZ009-010-012-014-032>034-037-058>063-250700-
...CENTRAL COLORADO...

CITY           SKY/WX    TMP DP  RH WIND       PRES   REMARKS
ASPEN          MOCLDY    59  33  37 S9        29.82F
BUENA VISTA    FAIR      55  29  36 W6        29.84F
COPPER MTN     FAIR      41  28  60 W20       30.08F
BERTHOUD PASS  CLOUDY    34  23  64 W25G37    30.09S WCI  21
COTTONWOOD PAS FAIR      54  23  30 SW12G17   29.96F
GUNNISON       MOCLDY    56  33  42 CALM      29.84F
KREMMLING      FAIR      61  34  36 S7        29.78F
LEADVILLE      MOCLDY    46  28  49 S8        29.96F
MONARCH PASS   FAIR      41  25  52 SW25G31   30.20S
SALIDA         FAIR      59  29  31 SW10      29.90S
SUNLIGHT       MOCLDY    45  27  49 SW15G22   30.02S
WILKERSON PASS MOCLDY    43  27  52 SW16G26   30.06S
$$

COZ069>075-250700-
...SAN LUIS VALLEY/SANGRE DE CRISTO MOUNTAINS...

CITY           SKY/WX    TMP DP  RH WIND       PRES   REMARKS
ALAMOSA        FAIR      50  30  46 S10       29.86F
DEL NORTE      FAIR      49  25  39 W10       29.89S
LA VETA PASS   FAIR      46  19  34 MISG      30.12F
SAGUACHE       FAIR      50  25  37 N10       29.87F
$$

COZ035-036-038>040-250700-
...NORTHERN COLORADO FRONT RANGE...

CITY           SKY/WX    TMP DP  RH WIND       PRES   REMARKS
DENVER INTL AP FAIR      64  30  27 S16       29.60F
DMNS CITY PARK   N/A     62  33  33 SE8       29.60S
AURORA         PTCLDY    57  35  42 S12       29.62F
FRONT RANGE AP FAIR      55  37  50 S12       29.62S
ERIE MUNI ARPT FAIR      57  39  50 CALM      29.58S
BOULDER MUN AP FAIR      64  30  27 SW6       29.59S
CENTENNIAL     FAIR      64  31  28 S14       29.64S
BROOMFIELD     FAIR      63  32  31 W8        29.62S
FORT COLLINS   FAIR      60  42  51 S5        29.56F
LONGMONT       FAIR      56  42  57 W6        29.59S
$$

COZ041-046-047-076>085-087-088-250700-
...PIKES PEAK/PALMER DIVIDE AND SOUTHERN FOOTHILLS...

CITY           SKY/WX    TMP DP  RH WIND       PRES   REMARKS
COLO. SPRINGS  FAIR      58  36  43 N7        29.71S
A. F. ACADEMY  FAIR      54  32  43 CALM      29.72S
SCHRIEVER AFB  FAIR      59  39  48 NE9       29.71F
CHEYENNE MTN   FAIR      65  26  23 S5        29.70F
ELLICOTT       FAIR     N/A N/A N/A E10       29.68F
FALCON         FAIR      52  33  47 CALM      29.76S
FORT CARSON    FAIR      64  35  35 S6        29.68F
LIMON          FAIR      47  42  83 SW3       29.66S
MONUMENT HILL  FAIR      50  32  50 SW9       29.77S
CANON CITY     NOT AVBL
WALSENBURG     FAIR      57  37  47 SW13      29.73S
TRINIDAD       FAIR      63  30  28 W15       29.71F
$$

COZ042>045-048>051-090-091-250700-
...NORTHEAST COLORADO...

CITY           SKY/WX    TMP DP  RH WIND       PRES   REMARKS
GREELEY ARPT   FAIR      59  46  62 CALM      29.54F
AKRON          FAIR      62  42  47 S16G26    29.57S
BURLINGTON     FAIR      58  47  66 S17G25    29.60F
WRAY           FAIR      63  43  48 S17G29    29.52F
YUMA           FAIR      59  34  38 S15       29.55S
STERLING       FAIR      55  45  67 SW9       29.50F
HOLYOKE        NOT AVBL
FORT MORGAN    FAIR      60  42  51 S8        29.55F
$$

COZ086-089-092>099-250700-
...SOUTHEAST COLORADO...

CITY           SKY/WX    TMP DP  RH WIND       PRES   REMARKS
PUEBLO         FAIR      59  45  59 W6        29.61R
LA JUNTA       FAIR      68  42  38 SW16      29.56F
LAMAR          FAIR      56  46  69 E13       29.56F
SPRINGFIELD      N/A     56  42  59 S9        29.64F
$$




USA.gov is the U.S. government's official web portal to all federal, state and local government web resources and services.